QPF
0.01 0.01 0.01 0.01 0.02 0.02 0.01 0.01 0.00 0.00 0.00 0.00 0.00 0.00 0.00 0.00 0.00 0.00 0.00 0.00 0.00 0.00 0.01 0.02 0.03 0.02 0.02 0.02 0.01 0.01 0.02 0.02 0.03 0.02 0.02 0.02 0.01 0.01 0.02 0.02 0.02 0.02 0.03 0.03 0.02 0.01 0.01 0.01 0.01
0.01 0.01 0.01 0.02 0.02 0.01 0.01 0.01 0.01 0.00 0.00 0.00 0.00 0.00 0.00 0.00 0.00 0.00 0.01 0.00 0.00 0.00 0.01 0.02 0.03 0.03 0.02 0.01 0.01 0.01 0.01 0.02 0.03 0.03 0.03 0.02 0.02 0.02 0.02 0.02 0.03 0.03 0.02 0.02 0.02 0.02 0.01 0.01 0.01
0.01 0.02 0.02 0.03 0.02 0.02 0.02 0.01 0.01 0.01 0.00 0.00 0.00 0.00 0.00 0.00 0.00 0.00 0.00 0.00 0.00 0.01 0.01 0.02 0.04 0.04 0.02 0.01 0.01 0.01 0.01 0.01 0.03 0.04 0.03 0.03 0.03 0.03 0.03 0.03 0.02 0.02 0.02 0.02 0.02 0.02 0.02 0.01 0.01
0.02 0.03 0.03 0.03 0.02 0.02 0.01 0.01 0.01 0.01 0.00 0.00 0.00 0.00 0.00 0.00 0.00 0.00 0.00 0.00 0.00 0.01 0.01 0.03 0.04 0.04 0.03 0.02 0.01 0.01 0.01 0.01 0.02 0.05 0.07 0.05 0.03 0.03 0.03 0.02 0.02 0.02 0.02 0.02 0.02 0.02 0.02 0.01 0.01
0.04 0.04 0.04 0.03 0.02 0.01 0.01 0.01 0.01 0.01 0.01 0.00 0.00 0.00 0.00 0.01 0.01 0.01 0.01 0.01 0.01 0.01 0.02 0.03 0.04 0.05 0.04 0.04 0.03 0.01 0.01 0.01 0.01 0.02 0.08 0.12 0.07 0.04 0.03 0.02 0.02 0.02 0.02 0.02 0.02 0.02 0.02 0.02 0.01
0.06 0.06 0.04 0.03 0.02 0.00 0.01 0.01 0.01 0.02 0.02 0.01 0.00 0.01 0.01 0.01 0.02 0.02 0.02 0.02 0.02 0.02 0.03 0.04 0.05 0.05 0.05 0.05 0.04 0.02 0.02 0.01 0.01 0.02 0.04 0.11 0.13 0.08 0.04 0.03 0.02 0.02 0.02 0.02 0.02 0.02 0.02 0.02 0.01
0.06 0.05 0.03 0.02 0.02 0.00 0.00 0.01 0.01 0.02 0.03 0.02 0.01 0.01 0.01 0.02 0.03 0.03 0.03 0.03 0.02 0.04 0.05 0.05 0.04 0.04 0.04 0.05 0.05 0.03 0.02 0.02 0.01 0.01 0.02 0.05 0.10 0.11 0.07 0.06 0.04 0.03 0.03 0.02 0.02 0.02 0.02 0.01 0.01
0.07 0.06 0.03 0.02 0.02 0.01 0.01 0.00 0.01 0.02 0.03 0.03 0.01 0.01 0.01 0.02 0.03 0.03 0.04 0.03 0.03 0.04 0.05 0.05 0.04 0.04 0.05 0.05 0.05 0.04 0.03 0.02 0.01 0.02 0.03 0.04 0.07 0.08 0.07 0.05 0.05 0.04 0.04 0.03 0.02 0.02 0.01 0.01 0.01
0.06 0.08 0.05 0.04 0.04 0.02 0.01 0.01 0.00 0.01 0.02 0.02 0.01 0.00 0.00 0.02 0.03 0.03 0.04 0.05 0.05 0.05 0.06 0.06 0.05 0.05 0.06 0.06 0.05 0.05 0.05 0.03 0.02 0.02 0.03 0.03 0.04 0.05 0.06 0.04 0.04 0.04 0.05 0.05 0.05 0.04 0.02 0.02 0.01
0.05 0.06 0.06 0.04 0.03 0.02 0.01 0.01 0.00 0.01 0.02 0.02 0.01 0.01 0.01 0.03 0.04 0.04 0.04 0.04 0.06 0.05 0.06 0.06 0.06 0.07 0.06 0.06 0.06 0.06 0.05 0.04 0.03 0.02 0.03 0.02 0.02 0.04 0.05 0.05 0.04 0.04 0.04 0.04 0.05 0.06 0.06 0.04 0.02
0.04 0.04 0.05 0.03 0.02 0.02 0.01 0.01 0.01 0.01 0.01 0.03 0.03 0.02 0.02 0.03 0.05 0.05 0.04 0.05 0.06 0.06 0.05 0.05 0.06 0.08 0.09 0.07 0.06 0.07 0.06 0.05 0.03 0.03 0.03 0.02 0.01 0.02 0.03 0.03 0.03 0.04 0.04 0.04 0.04 0.05 0.06 0.08 0.06
0.03 0.03 0.03 0.03 0.02 0.02 0.01 0.01 0.01 0.01 0.02 0.03 0.04 0.02 0.02 0.04 0.04 0.05 0.07 0.07 0.07 0.07 0.06 0.05 0.06 0.08 0.10 0.11 0.08 0.07 0.08 0.07 0.04 0.05 0.03 0.02 0.01 0.01 0.01 0.02 0.02 0.02 0.03 0.04 0.06 0.08 0.10 0.12 0.12
0.02 0.01 0.01 0.02 0.03 0.02 0.02 0.01 0.01 0.02 0.01 0.02 0.04 0.04 0.03 0.03 0.04 0.05 0.07 0.09 0.09 0.09 0.08 0.07 0.06 0.07 0.09 0.12 0.15 0.10 0.09 0.10 0.08 0.06 0.04 0.02 0.01 0.01 0.01 0.00 0.01 0.02 0.02 0.03 0.04 0.06 0.08 0.10 0.12
0.02 0.01 0.01 0.02 0.02 0.02 0.02 0.02 0.01 0.01 0.01 0.02 0.04 0.03 0.03 0.03 0.03 0.04 0.05 0.08 0.10 0.10 0.10 0.09 0.09 0.08 0.08 0.09 0.14 0.15 0.11 0.09 0.10 0.08 0.05 0.03 0.02 0.01 0.01 0.00 0.00 0.01 0.01 0.02 0.02 0.04 0.05 0.05 0.06
0.02 0.02 0.02 0.02 0.02 0.03 0.03 0.03 0.02 0.01 0.01 0.02 0.03 0.03 0.03 0.04 0.04 0.03 0.04 0.06 0.09 0.12 0.12 0.12 0.11 0.10 0.09 0.08 0.10 0.13 0.14 0.12 0.11 0.09 0.06 0.04 0.02 0.01 0.01 0.01 0.00 0.01 0.01 0.01 0.01 0.02 0.03 0.04 0.04
0.02 0.03 0.03 0.02 0.01 0.02 0.05 0.05 0.02 0.02 0.02 0.02 0.03 0.03 0.03 0.04 0.04 0.03 0.04 0.06 0.08 0.11 0.13 0.13 0.15 0.14 0.11 0.09 0.09 0.11 0.14 0.15 0.14 0.11 0.09 0.06 0.04 0.02 0.02 0.02 0.01 0.01 0.01 0.01 0.01 0.01 0.01 0.02 0.02
0.02 0.03 0.03 0.02 0.01 0.02 0.05 0.05 0.03 0.03 0.03 0.03 0.03 0.03 0.03 0.04 0.05 0.05 0.05 0.05 0.06 0.09 0.10 0.11 0.14 0.18 0.16 0.13 0.10 0.11 0.14 0.16 0.17 0.13 0.10 0.08 0.06 0.04 0.04 0.03 0.02 0.01 0.01 0.01 0.01 0.01 0.01 0.01 0.01
0.02 0.02 0.02 0.02 0.02 0.03 0.03 0.03 0.02 0.02 0.03 0.03 0.03 0.03 0.03 0.03 0.04 0.05 0.06 0.06 0.06 0.08 0.10 0.09 0.11 0.15 0.19 0.15 0.13 0.12 0.14 0.18 0.18 0.15 0.11 0.09 0.06 0.05 0.05 0.04 0.03 0.02 0.01 0.01 0.01 0.02 0.02 0.01 0.01
0.02 0.02 0.02 0.02 0.02 0.04 0.04 0.03 0.03 0.03 0.03 0.04 0.04 0.03 0.04 0.04 0.04 0.05 0.07 0.08 0.10 0.08 0.10 0.08 0.08 0.10 0.15 0.18 0.15 0.13 0.14 0.16 0.18 0.18 0.15 0.12 0.09 0.06 0.04 0.05 0.05 0.05 0.04 0.02 0.02 0.02 0.02 0.02 0.01
0.02 0.02 0.02 0.03 0.02 0.04 0.04 0.04 0.03 0.04 0.03 0.04 0.04 0.04 0.04 0.04 0.05 0.05 0.07 0.07 0.08 0.09 0.11 0.09 0.08 0.08 0.11 0.17 0.19 0.17 0.15 0.16 0.15 0.14 0.16 0.17 0.14 0.11 0.06 0.04 0.04 0.04 0.06 0.06 0.05 0.03 0.02 0.02 0.02
0.02 0.02 0.02 0.03 0.03 0.04 0.05 0.04 0.03 0.03 0.02 0.03 0.04 0.04 0.04 0.03 0.04 0.04 0.05 0.07 0.07 0.08 0.09 0.10 0.11 0.10 0.09 0.12 0.18 0.19 0.20 0.18 0.17 0.15 0.14 0.15 0.15 0.13 0.08 0.05 0.04 0.04 0.04 0.05 0.06 0.05 0.04 0.03 0.02
0.02 0.01 0.02 0.03 0.05 0.06 0.06 0.05 0.03 0.03 0.02 0.04 0.04 0.03 0.03 0.03 0.03 0.03 0.04 0.06 0.07 0.09 0.10 0.08 0.11 0.15 0.14 0.12 0.13 0.17 0.21 0.22 0.19 0.18 0.20 0.19 0.17 0.14 0.11 0.08 0.05 0.03 0.03 0.03 0.04 0.06 0.06 0.05 0.03
0.01 0.02 0.03 0.04 0.05 0.06 0.05 0.05 0.04 0.03 0.04 0.04 0.05 0.03 0.02 0.02 0.02 0.03 0.04 0.05 0.06 0.08 0.10 0.07 0.06 0.09 0.12 0.14 0.13 0.15 0.20 0.23 0.23 0.22 0.22 0.24 0.23 0.19 0.15 0.13 0.10 0.07 0.05 0.03 0.03 0.04 0.06 0.07 0.05
0.02 0.04 0.04 0.05 0.06 0.07 0.04 0.05 0.05 0.05 0.05 0.05 0.04 0.04 0.02 0.02 0.02 0.04 0.05 0.06 0.07 0.10 0.10 0.08 0.05 0.04 0.06 0.07 0.09 0.12 0.14 0.16 0.18 0.21 0.23 0.21 0.20 0.19 0.17 0.14 0.12 0.09 0.07 0.06 0.05 0.04 0.04 0.04 0.04
0.04 0.06 0.07 0.07 0.06 0.06 0.03 0.04 0.06 0.07 0.05 0.04 0.04 0.05 0.03 0.02 0.02 0.03 0.05 0.07 0.06 0.08 0.09 0.08 0.05 0.04 0.05 0.07 0.06 0.08 0.09 0.11 0.12 0.13 0.15 0.15 0.15 0.14 0.13 0.12 0.09 0.07 0.05 0.05 0.04 0.04 0.04 0.03 0.03
0.02 0.04 0.05 0.05 0.03 0.03 0.03 0.03 0.05 0.06 0.05 0.05 0.04 0.05 0.03 0.03 0.04 0.04 0.05 0.06 0.07 0.08 0.07 0.07 0.05 0.05 0.05 0.06 0.06 0.05 0.07 0.10 0.12 0.13 0.12 0.11 0.12 0.12 0.11 0.10 0.09 0.07 0.05 0.04 0.04 0.04 0.03 0.03 0.03
0.02 0.02 0.02 0.04 0.04 0.04 0.04 0.03 0.02 0.04 0.05 0.04 0.05 0.04 0.03 0.03 0.04 0.05 0.07 0.08 0.07 0.06 0.05 0.06 0.05 0.05 0.04 0.04 0.05 0.06 0.08 0.10 0.11 0.12 0.12 0.11 0.10 0.10 0.09 0.08 0.08 0.08 0.06 0.05 0.04 0.03 0.03 0.03 0.02
0.02 0.02 0.03 0.05 0.05 0.03 0.02 0.02 0.03 0.05 0.06 0.05 0.04 0.04 0.03 0.04 0.04 0.05 0.08 0.10 0.08 0.05 0.05 0.05 0.05 0.05 0.05 0.05 0.05 0.05 0.08 0.10 0.12 0.11 0.10 0.09 0.10 0.10 0.09 0.08 0.06 0.07 0.08 0.07 0.05 0.04 0.04 0.04 0.03
0.02 0.03 0.03 0.04 0.03 0.03 0.02 0.02 0.04 0.05 0.05 0.06 0.06 0.05 0.04 0.04 0.04 0.05 0.08 0.10 0.09 0.06 0.05 0.05 0.05 0.06 0.06 0.06 0.06 0.05 0.07 0.09 0.11 0.10 0.08 0.07 0.07 0.09 0.09 0.08 0.07 0.06 0.06 0.06 0.05 0.03 0.03 0.03 0.02
0.01 0.02 0.03 0.04 0.03 0.02 0.03 0.02 0.02 0.03 0.03 0.04 0.04 0.06 0.06 0.05 0.05 0.06 0.08 0.10 0.09 0.08 0.07 0.08 0.08 0.07 0.07 0.07 0.08 0.08 0.07 0.08 0.10 0.10 0.08 0.06 0.06 0.06 0.08 0.09 0.09 0.07 0.06 0.06 0.05 0.03 0.02 0.02 0.01
MSLP
1013.12 1013.51 1014.18 1015.06 1016.05 1017.01 1017.84 1018.44 1018.77 1018.83 1018.69 1018.41 1018.05 1017.67 1017.27 1016.84 1016.34 1015.70 1014.91 1013.96 1012.89 1011.78 1010.72 1009.80 1009.10 1008.63 1008.41 1008.38 1008.49 1008.67 1008.87 1009.06 1009.23 1009.40 1009.57 1009.77 1010.00 1010.28 1010.59 1010.93 1011.28 1011.65 1012.03 1012.44 1012.87 1013.32 1013.77 1014.20 1014.60
1013.70 1014.25 1015.06 1016.03 1017.03 1017.94 1018.65 1019.10 1019.25 1019.14 1018.84 1018.44 1018.02 1017.61 1017.23 1016.85 1016.41 1015.84 1015.11 1014.19 1013.14 1012.00 1010.88 1009.88 1009.08 1008.52 1008.21 1008.13 1008.22 1008.42 1008.68 1008.95 1009.21 1009.44 1009.66 1009.88 1010.10 1010.32 1010.57 1010.84 1011.14 1011.48 1011.87 1012.30 1012.77 1013.27 1013.78 1014.26 1014.70
1014.40 1015.08 1015.97 1016.94 1017.89 1018.70 1019.27 1019.55 1019.54 1019.28 1018.88 1018.40 1017.94 1017.53 1017.18 1016.83 1016.43 1015.91 1015.22 1014.34 1013.29 1012.15 1011.00 1009.94 1009.07 1008.43 1008.05 1007.91 1007.97 1008.17 1008.45 1008.77 1009.08 1009.38 1009.65 1009.89 1010.11 1010.31 1010.52 1010.74 1010.99 1011.31 1011.68 1012.13 1012.64 1013.19 1013.76 1014.31 1014.81
1015.18 1015.93 1016.82 1017.75 1018.59 1019.25 1019.66 1019.79 1019.65 1019.31 1018.85 1018.36 1017.91 1017.52 1017.20 1016.89 1016.52 1016.03 1015.36 1014.50 1013.47 1012.34 1011.18 1010.10 1009.18 1008.47 1008.01 1007.79 1007.77 1007.91 1008.17 1008.49 1008.83 1009.17 1009.49 1009.78 1010.03 1010.25 1010.46 1010.66 1010.90 1011.19 1011.56 1012.01 1012.54 1013.13 1013.76 1014.37 1014.95
1015.96 1016.72 1017.57 1018.39 1019.09 1019.60 1019.86 1019.87 1019.66 1019.30 1018.85 1018.41 1018.01 1017.68 1017.40 1017.12 1016.77 1016.28 1015.63 1014.79 1013.78 1012.67 1011.53 1010.45 1009.49 1008.71 1008.15 1007.80 1007.65 1007.67 1007.83 1008.10 1008.44 1008.81 1009.19 1009.55 1009.88 1010.16 1010.42 1010.66 1010.91 1011.19 1011.55 1012.00 1012.53 1013.15 1013.80 1014.47 1015.10
1016.67 1017.40 1018.15 1018.84 1019.40 1019.76 1019.91 1019.86 1019.65 1019.33 1018.97 1018.62 1018.32 1018.07 1017.83 1017.57 1017.22 1016.73 1016.08 1015.25 1014.28 1013.21 1012.10 1011.02 1010.03 1009.17 1008.47 1007.95 1007.61 1007.45 1007.46 1007.62 1007.91 1008.29 1008.73 1009.19 1009.64 1010.05 1010.41 1010.73 1011.02 1011.32 1011.68 1012.11 1012.62 1013.23 1013.89 1014.58 1015.25
1017.29 1017.93 1018.56 1019.11 1019.53 1019.79 1019.88 1019.83 1019.68 1019.47 1019.25 1019.04 1018.86 1018.69 1018.50 1018.24 1017.87 1017.36 1016.69 1015.88 1014.95 1013.93 1012.87 1011.80 1010.78 1009.83 1008.98 1008.25 1007.68 1007.28 1007.07 1007.07 1007.28 1007.65 1008.15 1008.73 1009.33 1009.90 1010.41 1010.84 1011.20 1011.54 1011.90 1012.30 1012.79 1013.36 1014.01 1014.69 1015.38
1017.79 1018.33 1018.84 1019.26 1019.56 1019.75 1019.84 1019.84 1019.80 1019.75 1019.69 1019.64 1019.59 1019.49 1019.32 1019.04 1018.63 1018.08 1017.40 1016.60 1015.70 1014.74 1013.73 1012.70 1011.65 1010.62 1009.61 1008.67 1007.84 1007.17 1006.73 1006.53 1006.62 1006.95 1007.50 1008.19 1008.95 1009.69 1010.36 1010.92 1011.39 1011.78 1012.14 1012.52 1012.97 1013.50 1014.11 1014.78 1015.46
1018.20 1018.64 1019.03 1019.34 1019.57 1019.73 1019.84 1019.94 1020.04 1020.15 1020.27 1020.36 1020.41 1020.36 1020.19 1019.87 1019.40 1018.80 1018.08 1017.29 1016.43 1015.53 1014.59 1013.61 1012.56 1011.46 1010.31 1009.17 1008.10 1007.17 1006.47 1006.07 1006.00 1006.28 1006.84 1007.61 1008.49 1009.39 1010.22 1010.92 1011.49 1011.94 1012.33 1012.71 1013.12 1013.62 1014.19 1014.83 1015.49
1018.57 1018.92 1019.21 1019.44 1019.62 1019.78 1019.94 1020.14 1020.37 1020.63 1020.89 1021.10 1021.22 1021.19 1020.98 1020.60 1020.06 1019.39 1018.63 1017.84 1017.03 1016.20 1015.34 1014.42 1013.41 1012.27 1011.03 1009.73 1008.45 1007.29 1006.35 1005.74 1005.51 1005.68 1006.21 1007.01 1007.98 1008.99 1009.95 1010.77 1011.44 1011.97 1012.41 1012.80 1013.21 1013.69 1014.24 1014.86 1015.51
1018.96 1019.23 1019.44 1019.61 1019.76 1019.93 1020.14 1020.42 1020.76 1021.14 1021.50 1021.78 1021.91 1021.87 1021.61 1021.15 1020.52 1019.78 1018.99 1018.19 1017.42 1016.67 1015.91 1015.07 1014.11 1013.00 1011.72 1010.33 1008.90 1007.55 1006.41 1005.60 1005.20 1005.23 1005.67 1006.44 1007.42 1008.49 1009.53 1010.45 1011.22 1011.84 1012.34 1012.79 1013.24 1013.73 1014.29 1014.91 1015.56
1019.41 1019.63 1019.78 1019.91 1020.03 1020.20 1020.44 1020.77 1021.17 1021.61 1022.01 1022.31 1022.43 1022.35 1022.02 1021.48 1020.77 1019.96 1019.14 1018.34 1017.61 1016.93 1016.26 1015.52 1014.65 1013.60 1012.34 1010.92 1009.42 1007.95 1006.65 1005.67 1005.09 1004.96 1005.27 1005.94 1006.86 1007.92 1008.99 1009.97 1010.83 1011.54 1012.14 1012.68 1013.21 1013.76 1014.37 1015.02 1015.68
1019.93 1020.11 1020.23 1020.32 1020.42 1020.58 1020.82 1021.15 1021.56 1021.99 1022.39 1022.66 1022.75 1022.61 1022.22 1021.61 1020.84 1019.99 1019.13 1018.34 1017.63 1017.01 1016.42 1015.79 1015.02 1014.06 1012.87 1011.49 1009.98 1008.46 1007.06 1005.93 1005.19 1004.88 1005.01 1005.52 1006.33 1007.31 1008.36 1009.38 1010.31 1011.12 1011.85 1012.51 1013.15 1013.81 1014.49 1015.19 1015.89
1020.50 1020.67 1020.76 1020.83 1020.90 1021.03 1021.23 1021.52 1021.88 1022.27 1022.61 1022.84 1022.88 1022.70 1022.27 1021.62 1020.82 1019.94 1019.07 1018.27 1017.58 1016.99 1016.46 1015.91 1015.24 1014.38 1013.30 1012.00 1010.55 1009.03 1007.59 1006.36 1005.46 1004.97 1004.89 1005.21 1005.86 1006.72 1007.71 1008.73 1009.71 1010.64 1011.49 1012.30 1013.09 1013.87 1014.65 1015.43 1016.16
1021.07 1021.23 1021.32 1021.37 1021.42 1021.49 1021.63 1021.85 1022.13 1022.44 1022.71 1022.87 1022.88 1022.67 1022.23 1021.59 1020.80 1019.92 1019.05 1018.25 1017.56 1016.98 1016.47 1015.96 1015.36 1014.61 1013.64 1012.45 1011.08 1009.62 1008.17 1006.88 1005.86 1005.19 1004.91 1005.02 1005.47 1006.19 1007.09 1008.08 1009.11 1010.13 1011.11 1012.07 1013.00 1013.92 1014.81 1015.66 1016.44
1021.57 1021.75 1021.85 1021.89 1021.91 1021.94 1022.00 1022.13 1022.30 1022.51 1022.70 1022.81 1022.78 1022.58 1022.18 1021.59 1020.84 1020.01 1019.16 1018.36 1017.65 1017.04 1016.51 1016.01 1015.45 1014.76 1013.89 1012.82 1011.55 1010.17 1008.76 1007.43 1006.32 1005.50 1005.03 1004.93 1005.18 1005.74 1006.53 1007.48 1008.53 1009.62 1010.72 1011.81 1012.88 1013.91 1014.89 1015.81 1016.64
1021.96 1022.17 1022.30 1022.36 1022.36 1022.35 1022.34 1022.36 1022.42 1022.51 1022.61 1022.67 1022.64 1022.47 1022.14 1021.64 1020.98 1020.22 1019.41 1018.61 1017.87 1017.22 1016.64 1016.10 1015.54 1014.89 1014.09 1013.11 1011.96 1010.67 1009.31 1007.99 1006.81 1005.86 1005.23 1004.94 1005.01 1005.40 1006.07 1006.96 1008.00 1009.14 1010.32 1011.50 1012.67 1013.79 1014.84 1015.81 1016.68
1022.21 1022.47 1022.66 1022.75 1022.77 1022.72 1022.64 1022.55 1022.50 1022.47 1022.48 1022.48 1022.45 1022.34 1022.10 1021.71 1021.17 1020.51 1019.76 1018.99 1018.23 1017.51 1016.87 1016.27 1015.67 1015.02 1014.27 1013.37 1012.31 1011.11 1009.82 1008.52 1007.31 1006.28 1005.51 1005.06 1004.95 1005.19 1005.73 1006.53 1007.54 1008.67 1009.88 1011.12 1012.34 1013.51 1014.60 1015.60 1016.49
1022.33 1022.68 1022.94 1023.11 1023.15 1023.09 1022.95 1022.76 1022.57 1022.42 1022.32 1022.26 1022.22 1022.15 1022.01 1021.75 1021.35 1020.81 1020.15 1019.42 1018.65 1017.90 1017.18 1016.51 1015.85 1015.19 1014.45 1013.61 1012.64 1011.53 1010.31 1009.06 1007.84 1006.75 1005.88 1005.30 1005.03 1005.11 1005.52 1006.22 1007.14 1008.23 1009.43 1010.66 1011.88 1013.06 1014.16 1015.17 1016.07
1022.38 1022.83 1023.21 1023.47 1023.57 1023.51 1023.31 1023.01 1022.68 1022.38 1022.14 1021.99 1021.91 1021.87 1021.82 1021.69 1021.43 1021.03 1020.49 1019.82 1019.08 1018.31 1017.54 1016.81 1016.11 1015.41 1014.69 1013.89 1012.98 1011.96 1010.82 1009.62 1008.42 1007.31 1006.36 1005.67 1005.27 1005.20 1005.45 1006.02 1006.83 1007.83 1008.95 1010.13 1011.32 1012.47 1013.55 1014.56 1015.47
1022.42 1023.01 1023.53 1023.90 1024.07 1024.01 1023.75 1023.34 1022.86 1022.37 1021.97 1021.69 1021.54 1021.49 1021.49 1021.46 1021.35 1021.10 1020.69 1020.13 1019.45 1018.69 1017.92 1017.15 1016.42 1015.71 1014.99 1014.23 1013.39 1012.44 1011.39 1010.25 1009.09 1007.97 1006.98 1006.19 1005.67 1005.45 1005.55 1005.95 1006.61 1007.47 1008.48 1009.56 1010.68 1011.78 1012.84 1013.83 1014.75
1022.52 1023.27 1023.94 1024.44 1024.68 1024.63 1024.31 1023.77 1023.10 1022.42 1021.81 1021.36 1021.10 1020.99 1021.01 1021.06 1021.07 1020.97 1020.71 1020.28 1019.70 1019.01 1018.27 1017.52 1016.79 1016.08 1015.38 1014.66 1013.88 1013.00 1012.03 1010.96 1009.85 1008.74 1007.72 1006.86 1006.23 1005.86 1005.79 1006.01 1006.49 1007.18 1008.04 1009.00 1010.03 1011.06 1012.08 1013.07 1014.00
1022.71 1023.63 1024.46 1025.08 1025.39 1025.34 1024.94 1024.26 1023.40 1022.50 1021.68 1021.03 1020.62 1020.43 1020.43 1020.53 1020.64 1020.67 1020.57 1020.28 1019.84 1019.25 1018.58 1017.87 1017.17 1016.49 1015.82 1015.15 1014.43 1013.63 1012.74 1011.75 1010.69 1009.61 1008.57 1007.65 1006.91 1006.40 1006.15 1006.18 1006.46 1006.96 1007.65 1008.48 1009.39 1010.36 1011.35 1012.34 1013.29
1022.98 1024.06 1025.03 1025.75 1026.11 1026.05 1025.57 1024.75 1023.71 1022.59 1021.55 1020.71 1020.13 1019.84 1019.80 1019.92 1020.11 1020.27 1020.30 1020.18 1019.87 1019.41 1018.84 1018.21 1017.56 1016.92 1016.29 1015.67 1015.01 1014.28 1013.47 1012.56 1011.56 1010.52 1009.48 1008.52 1007.68 1007.03 1006.61 1006.43 1006.51 1006.81 1007.32 1007.99 1008.80 1009.71 1010.67 1011.66 1012.64
1023.28 1024.48 1025.56 1026.35 1026.73 1026.64 1026.08 1025.14 1023.93 1022.63 1021.40 1020.39 1019.67 1019.28 1019.19 1019.32 1019.57 1019.82 1019.99 1020.00 1019.83 1019.50 1019.04 1018.49 1017.91 1017.32 1016.74 1016.16 1015.56 1014.91 1014.17 1013.33 1012.40 1011.41 1010.38 1009.38 1008.47 1007.69 1007.10 1006.73 1006.59 1006.70 1007.02 1007.55 1008.25 1009.09 1010.02 1011.02 1012.03
1023.53 1024.80 1025.92 1026.73 1027.09 1026.96 1026.33 1025.28 1023.96 1022.54 1021.19 1020.06 1019.24 1018.78 1018.66 1018.79 1019.08 1019.41 1019.67 1019.80 1019.75 1019.54 1019.18 1018.71 1018.19 1017.66 1017.12 1016.59 1016.04 1015.44 1014.77 1014.01 1013.15 1012.21 1011.20 1010.19 1009.21 1008.32 1007.58 1007.03 1006.70 1006.60 1006.74 1007.12 1007.70 1008.47 1009.38 1010.37 1011.41
1023.63 1024.89 1025.98 1026.74 1027.04 1026.85 1026.16 1025.06 1023.69 1022.22 1020.82 1019.66 1018.81 1018.33 1018.20 1018.35 1018.67 1019.05 1019.39 1019.60 1019.65 1019.53 1019.25 1018.86 1018.39 1017.90 1017.40 1016.90 1016.39 1015.85 1015.24 1014.55 1013.75 1012.86 1011.89 1010.87 1009.85 1008.88 1008.01 1007.30 1006.78 1006.50 1006.47 1006.69 1007.15 1007.84 1008.70 1009.68 1010.73
1023.51 1024.67 1025.63 1026.27 1026.48 1026.20 1025.47 1024.36 1023.01 1021.58 1020.25 1019.14 1018.34 1017.91 1017.81 1017.98 1018.33 1018.75 1019.14 1019.41 1019.52 1019.46 1019.25 1018.91 1018.50 1018.04 1017.57 1017.09 1016.61 1016.11 1015.55 1014.91 1014.18 1013.35 1012.42 1011.41 1010.37 1009.34 1008.37 1007.52 1006.85 1006.40 1006.19 1006.26 1006.60 1007.18 1007.97 1008.92 1009.96
1023.11 1024.07 1024.84 1025.28 1025.34 1024.97 1024.21 1023.14 1021.89 1020.59 1019.41 1018.44 1017.78 1017.45 1017.43 1017.65 1018.04 1018.48 1018.89 1019.19 1019.34 1019.33 1019.16 1018.87 1018.49 1018.07 1017.63 1017.17 1016.72 1016.24 1015.72 1015.13 1014.45 1013.67 1012.79 1011.81 1010.77 1009.71 1008.67 1007.72 1006.92 1006.32 1005.97 1005.88 1006.07 1006.53 1007.23 1008.11 1009.11
1022.48 1023.16 1023.64 1023.84 1023.71 1023.23 1022.46 1021.47 1020.37 1019.28 1018.32 1017.58 1017.11 1016.93 1017.01 1017.30 1017.72 1018.18 1018.60 1018.91 1019.09 1019.11 1018.99 1018.74 1018.41 1018.03 1017.61 1017.18 1016.74 1016.29 1015.79 1015.24 1014.61 1013.88 1013.04 1012.11 1011.09 1010.02 1008.96 1007.95 1007.05 1006.33 1005.83 1005.60 1005.64 1005.96 1006.53 1007.31 1008.24
Thickness
5680 5683 5684 5679 5666 5653 5658 5673 5685 5692 5698 5707 5712 5713 5713 5713 5712 5715 5732 5739 5739 5738 5737 5735 5734 5733 5732 5732 5732 5731 5731 5730 5730 5729 5729 5728 5727 5727 5726 5725 5724 5723 5722 5721 5720 5719 5717 5716 5714
5670 5673 5670 5661 5649 5642 5655 5671 5679 5690 5699 5704 5707 5710 5711 5713 5721 5725 5729 5733 5735 5734 5733 5732 5731 5729 5729 5728 5728 5727 5727 5727 5726 5725 5725 5724 5724 5723 5722 5722 5721 5719 5718 5717 5716 5715 5713 5712 5710
5662 5662 5653 5645 5639 5645 5658 5670 5678 5689 5695 5698 5700 5705 5707 5710 5718 5722 5727 5730 5730 5729 5729 5728 5727 5726 5725 5724 5724 5723 5722 5722 5722 5722 5721 5720 5720 5719 5718 5718 5717 5716 5714 5713 5712 5710 5709 5707 5706
5651 5646 5640 5635 5638 5650 5659 5668 5674 5680 5687 5692 5694 5695 5703 5711 5716 5720 5724 5725 5724 5724 5724 5723 5723 5722 5720 5720 5719 5718 5718 5718 5718 5717 5717 5716 5716 5715 5714 5713 5712 5711 5710 5709 5707 5706 5705 5703 5702
5637 5631 5626 5625 5637 5649 5656 5664 5670 5673 5678 5684 5687 5689 5695 5706 5713 5717 5718 5719 5718 5718 5718 5717 5717 5717 5716 5715 5714 5714 5714 5713 5713 5713 5712 5712 5711 5711 5710 5709 5708 5707 5706 5705 5703 5702 5701 5699 5697
5622 5620 5614 5620 5633 5643 5650 5658 5664 5667 5671 5676 5679 5682 5689 5699 5705 5709 5712 5712 5712 5712 5712 5711 5711 5711 5710 5710 5709 5709 5708 5708 5708 5708 5707 5707 5707 5706 5705 5704 5703 5702 5701 5700 5699 5698 5697 5695 5693
5611 5609 5610 5617 5624 5633 5645 5652 5655 5659 5664 5669 5675 5675 5683 5691 5697 5702 5704 5704 5705 5705 5705 5705 5704 5704 5703 5703 5703 5703 5703 5702 5702 5702 5702 5701 5701 5701 5700 5699 5698 5697 5696 5695 5694 5694 5692 5690 5688
5604 5601 5604 5609 5616 5625 5637 5644 5650 5652 5658 5666 5669 5669 5674 5683 5690 5694 5695 5695 5696 5697 5697 5697 5697 5697 5696 5696 5696 5697 5696 5696 5696 5696 5696 5696 5695 5695 5694 5693 5693 5692 5691 5690 5689 5688 5687 5685 5684
5598 5590 5596 5604 5609 5618 5628 5632 5641 5647 5651 5657 5661 5665 5673 5678 5683 5685 5685 5685 5686 5687 5688 5689 5689 5689 5689 5689 5689 5690 5690 5689 5689 5689 5689 5689 5689 5688 5688 5687 5687 5687 5686 5685 5684 5683 5682 5680 5678
5583 5582 5592 5600 5605 5609 5616 5621 5628 5635 5640 5645 5651 5659 5666 5670 5673 5675 5676 5676 5677 5677 5679 5681 5682 5682 5682 5682 5682 5682 5683 5682 5682 5683 5683 5683 5682 5682 5681 5681 5681 5681 5680 5679 5678 5676 5675 5675 5673
5573 5576 5584 5590 5596 5600 5605 5611 5617 5623 5627 5635 5640 5649 5655 5661 5664 5667 5669 5670 5671 5671 5672 5673 5674 5675 5675 5674 5674 5674 5675 5675 5675 5675 5676 5676 5675 5675 5674 5674 5674 5674 5673 5672 5671 5670 5669 5668 5667
5564 5570 5576 5580 5586 5589 5594 5600 5605 5612 5619 5629 5634 5641 5646 5651 5655 5658 5660 5662 5663 5663 5665 5666 5667 5667 5668 5667 5667 5667 5667 5667 5668 5668 5668 5668 5668 5667 5667 5667 5667 5666 5666 5665 5665 5663 5662 5662 5661
5557 5563 5569 5573 5577 5580 5585 5589 5594 5602 5611 5619 5625 5630 5635 5641 5645 5648 5652 5653 5655 5656 5657 5659 5660 5660 5660 5660 5660 5660 5659 5660 5660 5661 5661 5662 5661 5660 5660 5660 5659 5659 5658 5658 5657 5656 5655 5655 5654
5552 5555 5560 5564 5567 5571 5574 5581 5584 5595 5603 5608 5614 5619 5624 5630 5634 5638 5641 5644 5647 5649 5650 5652 5652 5652 5652 5653 5654 5654 5653 5653 5653 5654 5655 5655 5655 5654 5653 5653 5652 5652 5651 5651 5650 5649 5648 5647 5647
5546 5546 5551 5554 5557 5561 5565 5572 5577 5586 5593 5598 5602 5608 5614 5619 5624 5628 5632 5635 5639 5641 5642 5643 5645 5644 5644 5645 5646 5647 5647 5647 5648 5648 5648 5648 5648 5647 5646 5645 5645 5645 5644 5643 5642 5641 5640 5640 5640
5536 5534 5536 5547 5549 5554 5553 5559 5573 5577 5582 5587 5592 5597 5602 5609 5614 5619 5623 5626 5630 5632 5634 5635 5638 5637 5637 5637 5638 5639 5639 5640 5641 5641 5640 5641 5641 5641 5639 5638 5637 5637 5636 5636 5634 5633 5632 5631 5631
5521 5520 5525 5535 5541 5544 5544 5550 5563 5569 5572 5576 5581 5585 5591 5597 5603 5609 5613 5617 5620 5623 5625 5628 5630 5631 5630 5630 5630 5630 5631 5632 5633 5633 5634 5633 5634 5633 5633 5632 5630 5628 5627 5627 5626 5625 5624 5623 5622
5512 5513 5518 5523 5531 5534 5534 5541 5552 5557 5561 5564 5569 5574 5580 5586 5594 5600 5604 5608 5611 5614 5616 5619 5621 5622 5622 5621 5621 5621 5622 5624 5625 5625 5626 5626 5626 5626 5626 5625 5623 5620 5619 5618 5617 5616 5615 5614 5613
5510 5507 5509 5518 5525 5524 5526 5533 5542 5547 5550 5554 5559 5564 5570 5577 5584 5590 5595 5599 5602 5604 5607 5609 5611 5612 5614 5614 5613 5613 5614 5615 5616 5617 5618 5619 5619 5618 5618 5616 5614 5613 5611 5610 5609 5607 5606 5604 5604
5503 5501 5502 5510 5518 5518 5518 5524 5535 5539 5544 5548 5551 5555 5560 5567 5573 5579 5584 5589 5592 5594 5597 5600 5603 5604 5606 5607 5607 5606 5607 5607 5608 5609 5609 5610 5611 5610 5609 5608 5606 5605 5603 5601 5600 5600 5597 5596 5595
5498 5496 5498 5502 5508 5510 5509 5521 5531 5535 5538 5542 5544 5547 5551 5557 5562 5568 5573 5578 5581 5584 5587 5592 5594 5596 5597 5598 5598 5598 5598 5597 5598 5599 5600 5601 5601 5601 5601 5600 5598 5597 5596 5595 5594 5592 5591 5588 5586
5495 5499 5499 5499 5494 5495 5500 5506 5523 5525 5529 5534 5535 5537 5540 5546 5552 5557 5562 5567 5571 5574 5577 5581 5585 5587 5588 5588 5589 5590 5590 5590 5591 5591 5591 5592 5591 5592 5591 5590 5590 5589 5589 5588 5587 5586 5584 5583 5579
5491 5495 5494 5492 5488 5485 5491 5492 5512 5515 5520 5525 5527 5530 5532 5535 5540 5546 5551 5556 5561 5565 5568 5571 5574 5576 5577 5579 5580 5580 5580 5581 5581 5581 5581 5582 5582 5582 5582 5580 5580 5580 5580 5580 5579 5578 5577 5575 5573
5490 5489 5487 5479 5477 5482 5490 5487 5502 5505 5513 5519 5521 5523 5524 5526 5530 5535 5541 5545 5550 5554 5558 5560 5562 5564 5567 5568 5570 5571 5571 5571 5570 5571 5571 5571 5571 5571 5572 5571 5570 5571 5571 5571 5571 5570 5569 5568 5566
5483 5477 5473 5475 5468 5479 5486 5487 5499 5507 5507 5511 5514 5515 5515 5517 5519 5524 5530 5534 5539 5544 5546 5549 5551 5553 5556 5557 5559 5561 5561 5562 5562 5561 5561 5562 5561 5561 5561 5562 5562 5562 5562 5562 5561 5561 5561 5560 5558
5475 5473 5470 5473 5469 5473 5481 5485 5498 5501 5502 5504 5507 5507 5506 5507 5509 5514 5519 5524 5528 5532 5535 5536 5539 5541 5543 5545 5548 5550 5551 5551 5552 5551 5551 5551 5553 5553 5552 5553 5553 5553 5554 5554 5553 5552 5552 5551 5550
5472 5466 5467 5459 5454 5457 5470 5476 5490 5495 5496 5497 5499 5498 5497 5498 5501 5505 5510 5514 5517 5520 5524 5525 5527 5530 5531 5534 5536 5538 5539 5541 5542 5541 5540 5540 5541 5542 5543 5542 5543 5544 5544 5544 5544 5543 5542 5542 5541
5470 5462 5455 5455 5460 5463 5469 5471 5484 5486 5488 5489 5489 5490 5491 5493 5494 5498 5501 5505 5507 5510 5512 5514 5516 5517 5520 5522 5524 5527 5528 5529 5531 5531 5530 5530 5531 5532 5532 5533 5533 5535 5535 5535 5534 5533 5533 5532 5533
5460 5458 5452 5446 5449 5455 5459 5478 5485 5480 5481 5480 5480 5482 5482 5483 5487 5489 5492 5494 5496 5498 5501 5502 5505 5506 5508 5510 5512 5514 5516 5518 5519 5520 5520 5519 5520 5520 5522 5522 5523 5525 5525 5525 5525 5525 5524 5524 5524
5459 5455 5448 5453 5446 5439 5445 5471 5480 5472 5470 5470 5470 5472 5474 5476 5478 5480 5483 5484 5485 5486 5489 5491 5493 5495 5497 5499 5500 5502 5503 5505 5507 5509 5509 5509 5509 5510 5511 5512 5512 5514 5515 5515 5515 5515 5515 5515 5515